STARLINK-2712 (48674 NORAD) Tracking and Keplerian Element Data

This shows tracking and keplerian element data for the satellite.

Feedback or suggestion? Click here.




ElementValue
Catalog48674
NameSTARLINK-2712
Epoch Orbit364
Epoch Day210.91668981
Epoch Year2021
RAAN110.7092
Inclination53.0444
Eccentricity0.0001437
Argument of Perigee60.3332
Mean Anonmoly54.4358
Mean Motion15.20440772
Decay Rate-0.00932828
L11 48674U 21044AN 21210.91668981 -.00932828 00000-0 -45617-1 0 9992
L22 48674 53.0444 110.7092 0001437 60.3332 54.4358 15.20440772 3647

Live tracking and technical data element details for STARLINK-2712 (NORAD 48674). STARLINK-2712 can be tracked NOW for your location showing map with azimuth and elevation plus other details from your city location.

Track the satellite on the map from your city or location and see movement details for azimuth, elevation, latitude, longitude, range, height, and movement on the map or in text.







IsCatalogInMostPopularTable: catalog: 48674, numindb: 14
Update: records affected: 1



GetName: 48674 STARLINK-2712

Hit Count: updated at: Sat, 31 Jul 2021 16:24:03 GMT